Time,TemperatureF,DewpointF,PressureIn,WindDirection,WindDirectionDegrees,WindSpeedMPH,WindSpeedGustMPH,Humidity,HourlyPrecipIn,Conditions,Clouds,dailyrainin,SoftwareType,DateUTC
2013-10-04 00:35:00,57.2,56.1,30.05,NNW,344,0.0,0.0,96,0.00,,,0.00,Wunderground v.1.15,2013-10-04 04:35:00,
2013-10-04 00:38:00,57.1,56.0,30.05,NNW,343,0.0,0.0,96,0.00,,,0.00,Wunderground v.1.15,2013-10-04 04:38:00,
2013-10-04 00:43:00,57.1,56.0,30.05,NNW,344,0.0,0.0,96,0.00,,,0.00,Wunderground v.1.15,2013-10-04 04:43:00,
2013-10-04 00:44:00,57.1,56.0,30.05,NNW,344,0.0,0.0,96,0.00,,,0.00,Wunderground v.1.15,2013-10-04 04:44:00,
2013-10-04 00:47:00,57.0,55.9,30.05,NNW,344,0.0,0.0,96,0.00,,,0.00,Wunderground v.1.15,2013-10-04 04:47:00,
2013-10-04 00:53:00,56.9,55.8,30.05,NNW,344,0.0,0.0,96,0.00,,,0.00,Wunderground v.1.15,2013-10-04 04:53:00,
2013-10-04 00:59:00,56.8,55.7,30.06,NNW,344,0.0,0.0,96,0.00,,,0.00,Wunderground v.1.15,2013-10-04 04:59:00,
2013-10-04 01:04:00,56.8,55.7,30.06,NNW,344,0.0,0.0,96,0.00,,,0.00,Wunderground v.1.15,2013-10-04 05:04:00,
2013-10-04 01:06:00,56.8,55.7,30.06,NNW,343,0.0,0.0,96,0.00,,,0.00,Wunderground v.1.15,2013-10-04 05:06:00,
2013-10-04 01:11:00,56.7,55.6,30.06,NNW,343,0.0,0.0,96,0.00,,,0.00,Wunderground v.1.15,2013-10-04 05:11:00,
2013-10-04 01:16:00,56.6,55.5,30.06,NNW,343,0.0,0.0,96,0.00,,,0.00,Wunderground v.1.15,2013-10-04 05:16:00,
2013-10-04 01:25:00,56.4,55.3,30.06,NNW,343,0.0,0.0,96,0.00,,,0.00,Wunderground v.1.15,2013-10-04 05:25:00,
2013-10-04 01:28:00,56.4,55.3,30.06,NNW,344,0.0,0.0,96,0.00,,,0.00,Wunderground v.1.15,2013-10-04 05:28:00,
2013-10-04 01:29:00,56.3,55.2,30.06,NNW,344,0.0,0.0,96,0.00,,,0.00,Wunderground v.1.15,2013-10-04 05:29:00,
2013-10-04 01:31:00,56.3,55.2,30.06,NNW,344,0.0,0.0,96,0.00,,,0.00,Wunderground v.1.15,2013-10-04 05:31:00,
2013-10-04 01:37:00,56.2,55.1,30.06,NNW,344,0.0,0.0,96,0.00,,,0.00,Wunderground v.1.15,2013-10-04 05:37:00,
2013-10-04 01:42:00,56.2,55.1,30.06,NNW,343,0.0,0.0,96,0.00,,,0.00,Wunderground v.1.15,2013-10-04 05:42:00,
2013-10-04 01:48:00,56.1,55.0,30.06,NNW,344,0.0,0.0,96,0.00,,,0.00,Wunderground v.1.15,2013-10-04 05:48:00,
2013-10-04 01:54:00,56.0,54.9,30.05,NNW,344,0.0,0.0,96,0.00,,,0.00,Wunderground v.1.15,2013-10-04 05:54:00,
2013-10-04 02:00:00,55.9,54.8,30.05,NNW,344,0.0,0.0,96,0.00,,,0.00,Wunderground v.1.15,2013-10-04 06:00:00,
2013-10-04 02:05:00,55.8,54.7,30.05,NNW,343,0.0,0.0,96,0.00,,,0.00,Wunderground v.1.15,2013-10-04 06:05:00,
2013-10-04 02:10:00,55.7,54.6,30.05,NNW,344,0.0,0.0,96,0.00,,,0.00,Wunderground v.1.15,2013-10-04 06:10:00,
2013-10-04 02:15:00,55.7,54.9,30.05,NNW,343,0.0,0.0,97,0.00,,,0.00,Wunderground v.1.15,2013-10-04 06:15:00,
2013-10-04 02:20:00,55.6,54.8,30.05,NNW,344,0.0,0.0,97,0.00,,,0.00,Wunderground v.1.15,2013-10-04 06:20:00,
2013-10-04 02:25:00,55.6,54.8,30.05,NNW,344,0.0,0.0,97,0.00,,,0.00,Wunderground v.1.15,2013-10-04 06:25:00,
2013-10-04 02:30:00,55.5,54.7,30.05,NNW,344,0.0,0.0,97,0.00,,,0.00,Wunderground v.1.15,2013-10-04 06:30:00,
2013-10-04 02:35:00,55.5,54.7,30.04,NNW,343,0.0,0.0,97,0.00,,,0.00,Wunderground v.1.15,2013-10-04 06:35:00,
2013-10-04 02:40:00,55.5,54.7,30.04,NNW,344,0.0,0.0,97,0.00,,,0.00,Wunderground v.1.15,2013-10-04 06:40:00,
2013-10-04 02:45:00,55.5,54.7,30.04,NNW,344,0.0,0.0,97,0.00,,,0.00,Wunderground v.1.15,2013-10-04 06:45:00,
2013-10-04 02:50:00,55.5,54.7,30.04,NNW,344,0.0,0.0,97,0.00,,,0.00,Wunderground v.1.15,2013-10-04 06:50:00,
2013-10-04 02:55:00,55.5,54.7,30.04,NNW,344,0.0,0.0,97,0.00,,,0.00,Wunderground v.1.15,2013-10-04 06:55:00,
2013-10-04 03:00:00,55.6,54.8,30.04,NNW,343,0.0,0.0,97,0.00,,,0.00,Wunderground v.1.15,2013-10-04 07:00:00,
2013-10-04 03:05:00,55.7,54.9,30.04,NNW,344,0.0,0.0,97,0.00,,,0.00,Wunderground v.1.15,2013-10-04 07:05:00,
2013-10-04 03:10:00,55.8,55.2,30.04,NNW,343,0.0,0.0,98,0.00,,,0.00,Wunderground v.1.15,2013-10-04 07:10:00,
2013-10-04 03:15:00,56.0,55.4,30.04,NNW,343,0.0,0.0,98,0.00,,,0.00,Wunderground v.1.15,2013-10-04 07:15:00,
2013-10-04 03:20:00,56.1,55.5,30.04,NNW,344,0.0,0.0,98,0.00,,,0.00,Wunderground v.1.15,2013-10-04 07:20:00,
2013-10-04 03:25:00,56.1,55.5,30.04,NNW,344,0.0,0.0,98,0.00,,,0.00,Wunderground v.1.15,2013-10-04 07:25:00,
2013-10-04 03:30:00,56.3,55.7,30.04,NNW,344,0.0,0.0,98,0.00,,,0.00,Wunderground v.1.15,2013-10-04 07:30:00,
2013-10-04 03:35:00,56.4,55.8,30.03,NNW,344,0.0,0.0,98,0.00,,,0.00,Wunderground v.1.15,2013-10-04 07:35:00,
2013-10-04 03:40:00,56.4,55.8,30.03,NNW,344,0.0,0.0,98,0.00,,,0.00,Wunderground v.1.15,2013-10-04 07:40:00,
2013-10-04 03:45:00,56.4,55.6,30.03,NNW,344,0.0,0.0,97,0.00,,,0.00,Wunderground v.1.15,2013-10-04 07:45:00,
2013-10-04 03:50:00,56.4,55.8,30.03,NNW,344,0.0,0.0,98,0.00,,,0.00,Wunderground v.1.15,2013-10-04 07:50:00,
2013-10-04 03:55:00,56.3,55.5,30.04,NNW,344,0.0,0.0,97,0.00,,,0.00,Wunderground v.1.15,2013-10-04 07:55:00,
2013-10-04 04:00:00,56.2,55.4,30.04,NNW,343,0.0,0.0,97,0.00,,,0.00,Wunderground v.1.15,2013-10-04 08:00:00,
2013-10-04 04:05:00,56.2,55.4,30.04,NNW,344,0.0,0.0,97,0.00,,,0.00,Wunderground v.1.15,2013-10-04 08:05:00,
2013-10-04 04:10:00,56.1,55.3,30.03,NNW,344,0.0,0.0,97,0.00,,,0.00,Wunderground v.1.15,2013-10-04 08:10:00,
2013-10-04 04:15:00,56.0,55.2,30.03,NNW,344,0.0,0.0,97,0.00,,,0.00,Wunderground v.1.15,2013-10-04 08:15:00,
2013-10-04 04:20:00,55.9,55.1,30.03,NNW,344,0.0,0.0,97,0.00,,,0.00,Wunderground v.1.15,2013-10-04 08:20:00,
2013-10-04 04:25:00,55.9,55.1,30.03,NNW,344,0.0,0.0,97,0.00,,,0.00,Wunderground v.1.15,2013-10-04 08:25:00,
2013-10-04 04:30:00,55.8,55.0,30.03,NNW,344,0.0,0.0,97,0.00,,,0.00,Wunderground v.1.15,2013-10-04 08:30:00,
2013-10-04 04:35:00,55.8,55.0,30.03,NNW,344,0.0,0.0,97,0.00,,,0.00,Wunderground v.1.15,2013-10-04 08:35:00,
2013-10-04 04:40:00,55.7,54.9,30.03,NNW,344,0.0,0.0,97,0.00,,,0.00,Wunderground v.1.15,2013-10-04 08:40:00,
2013-10-04 04:45:00,55.7,54.9,30.03,NNW,344,0.0,0.0,97,0.00,,,0.00,Wunderground v.1.15,2013-10-04 08:45:00,
2013-10-04 04:50:00,55.6,54.8,30.03,NNW,344,0.0,0.0,97,0.00,,,0.00,Wunderground v.1.15,2013-10-04 08:50:00,
2013-10-04 04:55:00,55.5,54.7,30.03,NNW,344,0.0,0.0,97,0.00,,,0.00,Wunderground v.1.15,2013-10-04 08:55:00,
2013-10-04 05:00:00,55.5,54.7,30.03,NNW,343,0.0,0.0,97,0.00,,,0.00,Wunderground v.1.15,2013-10-04 09:00:00,
2013-10-04 05:05:00,55.5,54.7,30.03,NNW,344,0.0,0.0,97,0.00,,,0.00,Wunderground v.1.15,2013-10-04 09:05:00,
2013-10-04 05:10:00,55.5,54.7,30.03,NNW,344,0.0,0.0,97,0.00,,,0.00,Wunderground v.1.15,2013-10-04 09:10:00,
2013-10-04 05:15:00,55.4,54.6,30.03,NNW,344,0.0,0.0,97,0.00,,,0.00,Wunderground v.1.15,2013-10-04 09:15:00,
2013-10-04 05:20:00,55.4,54.6,30.03,NNW,344,0.0,0.0,97,0.00,,,0.00,Wunderground v.1.15,2013-10-04 09:20:00,
2013-10-04 05:25:00,55.5,54.7,30.03,NNW,344,0.0,0.0,97,0.00,,,0.00,Wunderground v.1.15,2013-10-04 09:25:00,
2013-10-04 05:30:00,55.5,54.9,30.04,NNW,344,0.0,0.0,98,0.00,,,0.00,Wunderground v.1.15,2013-10-04 09:30:00,
2013-10-04 05:35:00,55.5,54.9,30.03,NNW,344,0.0,0.0,98,0.00,,,0.00,Wunderground v.1.15,2013-10-04 09:35:00,
2013-10-04 05:40:00,55.5,54.9,30.03,NNW,344,0.0,0.0,98,0.00,,,0.00,Wunderground v.1.15,2013-10-04 09:40:00,
2013-10-04 05:45:00,55.5,54.9,30.03,NNW,344,0.0,0.0,98,0.00,,,0.00,Wunderground v.1.15,2013-10-04 09:45:00,
2013-10-04 05:50:00,55.5,54.9,30.03,NNW,344,0.0,0.0,98,0.00,,,0.00,Wunderground v.1.15,2013-10-04 09:50:00,
2013-10-04 05:55:00,55.5,54.9,30.03,NNW,344,0.0,0.0,98,0.00,,,0.00,Wunderground v.1.15,2013-10-04 09:55:00,
2013-10-04 06:00:00,55.5,54.9,30.03,NNW,344,0.0,0.0,98,0.00,,,0.00,Wunderground v.1.15,2013-10-04 10:00:00,
2013-10-04 06:05:00,55.5,54.9,30.04,NNW,344,0.0,0.0,98,0.00,,,0.00,Wunderground v.1.15,2013-10-04 10:05:00,
2013-10-04 06:10:00,55.5,54.9,30.04,NNW,344,0.0,0.0,98,0.00,,,0.00,Wunderground v.1.15,2013-10-04 10:10:00,
2013-10-04 06:15:00,55.4,54.8,30.04,NNW,344,0.0,0.0,98,0.00,,,0.00,Wunderground v.1.15,2013-10-04 10:15:00,
2013-10-04 06:20:00,55.4,54.8,30.03,NNW,344,0.0,0.0,98,0.00,,,0.00,Wunderground v.1.15,2013-10-04 10:20:00,
2013-10-04 06:25:00,55.3,54.7,30.03,NNW,344,0.0,0.0,98,0.00,,,0.00,Wunderground v.1.15,2013-10-04 10:25:00,
2013-10-04 06:30:00,55.3,54.7,30.03,NNW,344,0.0,0.0,98,0.00,,,0.00,Wunderground v.1.15,2013-10-04 10:30:00,
2013-10-04 06:35:00,55.4,54.8,30.03,NNW,344,0.0,0.0,98,0.00,,,0.00,Wunderground v.1.15,2013-10-04 10:35:00,
2013-10-04 06:40:00,55.4,54.8,30.03,NNW,344,0.0,0.0,98,0.00,,,0.00,Wunderground v.1.15,2013-10-04 10:40:00,
2013-10-04 06:45:00,55.4,54.8,30.03,NNW,344,0.0,0.0,98,0.00,,,0.00,Wunderground v.1.15,2013-10-04 10:45:00,
2013-10-04 06:50:00,55.4,54.8,30.03,NNW,344,0.0,0.0,98,0.00,,,0.00,Wunderground v.1.15,2013-10-04 10:50:00,
2013-10-04 06:55:00,55.4,54.8,30.03,NNW,344,0.0,0.0,98,0.00,,,0.00,Wunderground v.1.15,2013-10-04 10:55:00,
2013-10-04 07:00:00,55.4,54.8,30.03,NNW,344,0.0,0.0,98,0.00,,,0.00,Wunderground v.1.15,2013-10-04 11:00:00,
2013-10-04 07:05:00,55.4,54.8,30.04,NNW,344,0.0,0.0,98,0.00,,,0.00,Wunderground v.1.15,2013-10-04 11:05:00,
2013-10-04 07:10:00,55.4,54.8,30.04,NNW,344,0.0,0.0,98,0.00,,,0.00,Wunderground v.1.15,2013-10-04 11:10:00,
2013-10-04 07:15:00,55.4,54.8,30.04,NNW,344,0.0,0.0,98,0.00,,,0.00,Wunderground v.1.15,2013-10-04 11:15:00,
2013-10-04 07:20:00,55.5,54.9,30.04,NNW,344,0.0,0.0,98,0.00,,,0.00,Wunderground v.1.15,2013-10-04 11:20:00,
2013-10-04 07:25:00,55.5,54.9,30.04,NNW,344,0.0,0.0,98,0.00,,,0.00,Wunderground v.1.15,2013-10-04 11:25:00,
2013-10-04 07:30:00,55.6,55.0,30.04,NNW,344,0.0,0.0,98,0.00,,,0.00,Wunderground v.1.15,2013-10-04 11:30:00,
2013-10-04 07:35:00,55.7,55.1,30.04,NNW,343,0.0,0.0,98,0.00,,,0.00,Wunderground v.1.15,2013-10-04 11:35:00,
2013-10-04 07:41:00,55.9,55.3,30.05,NNW,344,0.0,0.0,98,0.00,,,0.00,Wunderground v.1.15,2013-10-04 11:41:00,
2013-10-04 07:46:00,56.1,55.5,30.04,NNW,344,0.0,0.0,98,0.00,,,0.00,Wunderground v.1.15,2013-10-04 11:46:00,
2013-10-04 07:51:00,56.4,55.8,30.05,NNW,344,0.0,0.0,98,0.00,,,0.00,Wunderground v.1.15,2013-10-04 11:51:00,
2013-10-04 07:56:00,56.6,56.0,30.05,NNW,343,0.0,0.0,98,0.00,,,0.00,Wunderground v.1.15,2013-10-04 11:56:00,
2013-10-04 08:01:00,57.0,56.7,30.05,NNW,344,0.0,0.0,99,0.00,,,0.00,Wunderground v.1.15,2013-10-04 12:01:00,
2013-10-04 08:06:00,57.3,57.0,30.05,NNW,344,0.0,0.0,99,0.00,,,0.00,Wunderground v.1.15,2013-10-04 12:06:00,
2013-10-04 08:11:00,57.5,57.2,30.05,NNW,344,0.0,0.0,99,0.00,,,0.00,Wunderground v.1.15,2013-10-04 12:11:00,
2013-10-04 08:16:00,57.8,57.5,30.05,NNW,344,0.0,0.0,99,0.00,,,0.00,Wunderground v.1.15,2013-10-04 12:16:00,
2013-10-04 08:21:00,57.9,57.6,30.05,NNW,344,0.0,0.0,99,0.00,,,0.00,Wunderground v.1.15,2013-10-04 12:21:00,
2013-10-04 08:26:00,58.1,57.8,30.05,NNW,343,0.0,0.0,99,0.00,,,0.00,Wunderground v.1.15,2013-10-04 12:26:00,
2013-10-04 08:31:00,58.3,58.0,30.05,NNW,344,0.0,0.0,99,0.00,,,0.00,Wunderground v.1.15,2013-10-04 12:31:00,
2013-10-04 08:36:00,58.6,58.3,30.05,NNW,343,0.0,0.0,99,0.00,,,0.00,Wunderground v.1.15,2013-10-04 12:36:00,
2013-10-04 08:41:00,58.9,58.6,30.05,NNW,344,0.0,0.0,99,0.00,,,0.00,Wunderground v.1.15,2013-10-04 12:41:00,
2013-10-04 08:46:00,59.5,59.2,30.05,NNW,344,0.0,0.0,99,0.00,,,0.00,Wunderground v.1.15,2013-10-04 12:46:00,
2013-10-04 08:51:00,60.0,59.7,30.05,North,9,0.0,0.0,99,0.00,,,0.00,Wunderground v.1.15,2013-10-04 12:51:00,
2013-10-04 08:56:00,60.4,60.1,30.05,North,9,0.0,0.0,99,0.00,,,0.00,Wunderground v.1.15,2013-10-04 12:56:00,
2013-10-04 09:01:00,60.7,60.4,30.05,North,9,0.0,0.0,99,0.00,,,0.00,Wunderground v.1.15,2013-10-04 13:01:00,
2013-10-04 09:06:00,61.2,60.9,30.05,North,5,0.0,1.0,99,0.00,,,0.00,Wunderground v.1.15,2013-10-04 13:06:00,
2013-10-04 09:11:00,61.6,61.3,30.04,North,5,0.0,1.0,99,0.00,,,0.00,Wunderground v.1.15,2013-10-04 13:11:00,
2013-10-04 09:16:00,61.9,61.6,30.04,North,5,0.0,1.0,99,0.00,,,0.00,Wunderground v.1.15,2013-10-04 13:16:00,
2013-10-04 09:21:00,62.4,62.1,30.05,North,5,0.0,0.0,99,0.00,,,0.00,Wunderground v.1.15,2013-10-04 13:21:00,
2013-10-04 09:26:00,62.9,62.3,30.04,North,5,0.0,1.0,98,0.00,,,0.00,Wunderground v.1.15,2013-10-04 13:26:00,
2013-10-04 09:31:00,63.4,62.5,30.05,North,5,0.0,0.0,97,0.00,,,0.00,Wunderground v.1.15,2013-10-04 13:31:00,
2013-10-04 09:36:00,63.6,62.1,30.05,North,5,0.0,0.0,95,0.00,,,0.00,Wunderground v.1.15,2013-10-04 13:36:00,
2013-10-04 09:41:00,63.8,62.3,30.05,North,5,0.0,0.0,95,0.00,,,0.00,Wunderground v.1.15,2013-10-04 13:41:00,
2013-10-04 09:46:00,63.9,62.1,30.05,North,5,0.0,1.0,94,0.00,,,0.00,Wunderground v.1.15,2013-10-04 13:46:00,
2013-10-04 09:51:00,63.9,62.1,30.05,North,5,0.0,0.0,94,0.00,,,0.00,Wunderground v.1.15,2013-10-04 13:51:00,
2013-10-04 09:56:00,63.9,62.4,30.05,North,5,1.0,1.0,95,0.00,,,0.00,Wunderground v.1.15,2013-10-04 13:56:00,
2013-10-04 10:01:00,64.0,62.5,30.04,North,5,0.0,0.0,95,0.00,,,0.00,Wunderground v.1.15,2013-10-04 14:01:00,
2013-10-04 10:06:00,64.1,62.6,30.04,North,5,0.0,0.0,95,0.00,,,0.00,Wunderground v.1.15,2013-10-04 14:06:00,
2013-10-04 10:11:00,64.3,62.8,30.04,North,5,0.0,0.0,95,0.00,,,0.00,Wunderground v.1.15,2013-10-04 14:11:00,
2013-10-04 10:16:00,64.4,62.9,30.04,North,5,0.0,0.0,95,0.00,,,0.00,Wunderground v.1.15,2013-10-04 14:16:00,
2013-10-04 10:21:00,64.7,63.2,30.04,North,5,0.0,0.0,95,0.00,,,0.00,Wunderground v.1.15,2013-10-04 14:21:00,
2013-10-04 10:26:00,64.8,63.3,30.04,North,5,0.0,0.0,95,0.00,,,0.00,Wunderground v.1.15,2013-10-04 14:26:00,
2013-10-04 10:31:00,65.2,64.0,30.04,North,5,0.0,0.0,96,0.00,,,0.00,Wunderground v.1.15,2013-10-04 14:31:00,
2013-10-04 10:36:00,66.0,64.8,30.04,North,5,0.0,1.0,96,0.00,,,0.00,Wunderground v.1.15,2013-10-04 14:36:00,
2013-10-04 10:41:00,66.9,64.8,30.04,North,5,0.0,0.0,93,0.00,,,0.00,Wunderground v.1.15,2013-10-04 14:41:00,
2013-10-04 10:46:00,67.7,65.3,30.04,North,5,0.0,0.0,92,0.00,,,0.00,Wunderground v.1.15,2013-10-04 14:46:00,
2013-10-04 10:51:00,68.5,66.1,30.03,North,5,0.0,0.0,92,0.00,,,0.00,Wunderground v.1.15,2013-10-04 14:51:00,
2013-10-04 10:56:00,69.1,66.4,30.03,North,5,0.0,2.0,91,0.00,,,0.00,Wunderground v.1.15,2013-10-04 14:56:00,
2013-10-04 11:01:00,69.7,66.6,30.03,North,5,0.0,1.0,90,0.00,,,0.00,Wunderground v.1.15,2013-10-04 15:01:00,
2013-10-04 11:06:00,70.3,67.2,30.03,North,5,0.0,2.0,90,0.00,,,0.00,Wunderground v.1.15,2013-10-04 15:06:00,
2013-10-04 11:11:00,70.7,67.0,30.03,North,5,0.0,2.0,88,0.00,,,0.00,Wunderground v.1.15,2013-10-04 15:11:00,
2013-10-04 11:16:00,71.1,67.4,30.03,North,5,0.0,2.0,88,0.00,,,0.00,Wunderground v.1.15,2013-10-04 15:16:00,
2013-10-04 11:17:00,71.2,67.1,30.03,North,5,0.0,2.0,87,0.00,,,0.00,Wunderground v.1.15,2013-10-04 15:17:00,
2013-10-04 11:22:00,71.5,67.4,30.03,East,82,1.0,2.0,87,0.00,,,0.00,Wunderground v.1.15,2013-10-04 15:22:00,
2013-10-04 11:27:00,72.1,67.7,30.02,SE,130,1.0,3.0,86,0.00,,,0.00,Wunderground v.1.15,2013-10-04 15:27:00,
2013-10-04 11:32:00,72.3,67.9,30.02,SE,130,0.0,1.0,86,0.00,,,0.00,Wunderground v.1.15,2013-10-04 15:32:00,
2013-10-04 11:37:00,72.4,67.6,30.02,SE,130,0.0,1.0,85,0.00,,,0.00,Wunderground v.1.15,2013-10-04 15:37:00,
2013-10-04 11:42:00,72.7,67.6,30.02,SE,130,0.0,2.0,84,0.00,,,0.00,Wunderground v.1.15,2013-10-04 15:42:00,
2013-10-04 11:47:00,73.3,67.8,30.02,WNW,295,0.0,2.0,83,0.00,,,0.00,Wunderground v.1.15,2013-10-04 15:47:00,
2013-10-04 11:52:00,73.7,68.9,30.02,WNW,295,1.0,1.0,85,0.00,,,0.00,Wunderground v.1.15,2013-10-04 15:52:00,
2013-10-04 11:57:00,74.0,68.9,30.02,WNW,295,0.0,2.0,84,0.00,,,0.00,Wunderground v.1.15,2013-10-04 15:57:00,
2013-10-04 12:02:00,74.2,68.3,30.01,WNW,295,0.0,1.0,82,0.00,,,0.00,Wunderground v.1.15,2013-10-04 16:02:00,
2013-10-04 12:07:00,74.4,68.2,30.01,WNW,295,1.0,1.0,81,0.00,,,0.00,Wunderground v.1.15,2013-10-04 16:07:00,
2013-10-04 12:12:00,74.7,68.5,30.01,WNW,295,0.0,1.0,81,0.00,,,0.00,Wunderground v.1.15,2013-10-04 16:12:00,
2013-10-04 12:17:00,74.8,68.6,30.01,SSE,162,0.0,2.0,81,0.00,,,0.00,Wunderground v.1.15,2013-10-04 16:17:00,
2013-10-04 12:22:00,74.9,69.0,30.01,SSE,162,0.0,1.0,82,0.00,,,0.00,Wunderground v.1.15,2013-10-04 16:22:00,
2013-10-04 12:27:00,75.1,69.2,30.01,SSE,162,0.0,1.0,82,0.00,,,0.00,Wunderground v.1.15,2013-10-04 16:27:00,
2013-10-04 12:32:00,75.5,69.3,30.01,SSE,163,1.0,2.0,81,0.00,,,0.00,Wunderground v.1.15,2013-10-04 16:32:00,
2013-10-04 12:37:00,75.8,69.2,30.01,SSE,165,1.0,2.0,80,0.00,,,0.00,Wunderground v.1.15,2013-10-04 16:37:00,
2013-10-04 12:42:00,76.1,69.5,30.01,SSW,194,1.0,2.0,80,0.00,,,0.00,Wunderground v.1.15,2013-10-04 16:42:00,
2013-10-04 12:47:00,76.6,70.0,30.00,SSW,194,1.0,2.0,80,0.00,,,0.00,Wunderground v.1.15,2013-10-04 16:47:00,
2013-10-04 12:52:00,77.0,69.2,30.00,NW,313,1.0,2.0,77,0.00,,,0.00,Wunderground v.1.15,2013-10-04 16:52:00,
2013-10-04 12:57:00,77.3,69.1,30.00,ENE,59,1.0,2.0,76,0.00,,,0.00,Wunderground v.1.15,2013-10-04 16:57:00,
2013-10-04 13:02:00,77.2,68.7,30.00,WNW,301,0.0,2.0,75,0.00,,,0.00,Wunderground v.1.15,2013-10-04 17:02:00,
2013-10-04 13:07:00,77.3,69.1,30.00,WNW,286,0.0,4.0,76,0.00,,,0.00,Wunderground v.1.15,2013-10-04 17:07:00,
2013-10-04 13:12:00,77.4,69.2,29.99,WNW,286,0.0,1.0,76,0.00,,,0.00,Wunderground v.1.15,2013-10-04 17:12:00,
2013-10-04 13:17:00,77.4,69.6,29.99,WNW,286,0.0,1.0,77,0.00,,,0.00,Wunderground v.1.15,2013-10-04 17:17:00,
2013-10-04 13:22:00,77.5,69.7,29.99,WNW,286,0.0,0.0,77,0.00,,,0.00,Wunderground v.1.15,2013-10-04 17:22:00,
2013-10-04 13:27:00,77.7,69.5,29.99,SE,130,0.0,2.0,76,0.00,,,0.00,Wunderground v.1.15,2013-10-04 17:27:00,
2013-10-04 13:32:00,78.0,69.8,29.98,SE,130,0.0,2.0,76,0.00,,,0.00,Wunderground v.1.15,2013-10-04 17:32:00,
2013-10-04 13:37:00,78.2,69.6,29.98,SE,130,0.0,2.0,75,0.00,,,0.00,Wunderground v.1.15,2013-10-04 17:37:00,
2013-10-04 14:02:00,79.5,69.7,29.97,SSE,158,0.0,2.0,72,0.00,,,0.00,Wunderground v.1.15,2013-10-04 18:02:00,
2013-10-04 14:07:00,79.6,69.8,29.97,West,277,0.0,2.0,72,0.00,,,0.00,Wunderground v.1.15,2013-10-04 18:07:00,
2013-10-04 14:12:00,79.7,70.3,29.97,SE,125,3.0,3.0,73,0.00,,,0.00,Wunderground v.1.15,2013-10-04 18:12:00,
2013-10-04 14:17:00,79.6,69.4,29.97,WNW,288,1.0,3.0,71,0.00,,,0.00,Wunderground v.1.15,2013-10-04 18:17:00,
2013-10-04 14:22:00,79.6,69.8,29.96,WNW,288,0.0,2.0,72,0.00,,,0.00,Wunderground v.1.15,2013-10-04 18:22:00,
2013-10-04 14:27:00,79.8,69.6,29.97,WNW,288,0.0,2.0,71,0.00,,,0.00,Wunderground v.1.15,2013-10-04 18:27:00,
2013-10-04 14:32:00,80.1,69.8,29.96,WNW,288,0.0,1.0,71,0.00,,,0.00,Wunderground v.1.15,2013-10-04 18:32:00,
2013-10-04 14:37:00,80.3,70.0,29.97,WNW,288,1.0,1.0,71,0.00,,,0.00,Wunderground v.1.15,2013-10-04 18:37:00,
2013-10-04 14:42:00,80.4,69.7,29.97,North,355,0.0,1.0,70,0.00,,,0.00,Wunderground v.1.15,2013-10-04 18:42:00,
2013-10-04 14:47:00,80.6,68.2,29.97,NNW,338,0.0,2.0,66,0.00,,,0.00,Wunderground v.1.15,2013-10-04 18:47:00,
2013-10-04 14:52:00,80.8,67.9,29.97,NNW,338,0.0,2.0,65,0.00,,,0.00,Wunderground v.1.15,2013-10-04 18:52:00,
2013-10-04 14:57:00,80.8,68.4,29.97,NNW,338,0.0,2.0,66,0.00,,,0.00,Wunderground v.1.15,2013-10-04 18:57:00,
2013-10-04 15:02:00,80.9,68.9,29.96,NNW,338,0.0,1.0,67,0.00,,,0.00,Wunderground v.1.15,2013-10-04 19:02:00,
2013-10-04 15:07:00,80.9,69.3,29.96,NNW,338,0.0,1.0,68,0.00,,,0.00,Wunderground v.1.15,2013-10-04 19:07:00,
2013-10-04 15:12:00,80.8,68.8,29.96,NNW,338,1.0,1.0,67,0.00,,,0.00,Wunderground v.1.15,2013-10-04 19:12:00,
2013-10-04 15:17:00,80.5,69.8,29.96,NNW,338,0.0,1.0,70,0.00,,,0.00,Wunderground v.1.15,2013-10-04 19:17:00,
2013-10-04 15:22:00,80.2,69.5,29.96,NNW,338,0.0,0.0,70,0.00,,,0.00,Wunderground v.1.15,2013-10-04 19:22:00,
2013-10-04 15:27:00,80.0,68.9,29.96,NNW,338,0.0,0.0,69,0.00,,,0.00,Wunderground v.1.15,2013-10-04 19:27:00,
2013-10-04 15:32:00,79.8,69.6,29.96,NNW,338,0.0,0.0,71,0.00,,,0.00,Wunderground v.1.15,2013-10-04 19:32:00,
2013-10-04 15:37:00,79.6,68.5,29.96,ENE,66,0.0,0.0,69,0.00,,,0.00,Wunderground v.1.15,2013-10-04 19:37:00,
2013-10-04 15:42:00,79.5,69.7,29.96,ENE,66,0.0,0.0,72,0.00,,,0.00,Wunderground v.1.15,2013-10-04 19:42:00,
2013-10-04 15:47:00,79.3,69.9,29.96,ENE,66,0.0,0.0,73,0.00,,,0.00,Wunderground v.1.15,2013-10-04 19:47:00,
2013-10-04 15:52:00,79.0,69.2,29.96,ENE,66,0.0,1.0,72,0.00,,,0.00,Wunderground v.1.15,2013-10-04 19:52:00,
2013-10-04 15:57:00,78.7,69.3,29.96,ENE,66,0.0,1.0,73,0.00,,,0.00,Wunderground v.1.15,2013-10-04 19:57:00,
2013-10-04 16:02:00,78.5,69.1,29.96,ENE,66,0.0,0.0,73,0.00,,,0.00,Wunderground v.1.15,2013-10-04 20:02:00,
2013-10-04 16:07:00,78.4,70.2,29.96,ENE,66,0.0,0.0,76,0.00,,,0.00,Wunderground v.1.15,2013-10-04 20:07:00,
2013-10-04 16:12:00,78.2,69.2,29.96,ENE,67,0.0,1.0,74,0.00,,,0.00,Wunderground v.1.15,2013-10-04 20:12:00,
2013-10-04 16:17:00,77.9,68.9,29.96,East,80,0.0,1.0,74,0.00,,,0.00,Wunderground v.1.15,2013-10-04 20:17:00,
2013-10-04 16:22:00,77.6,68.7,29.97,East,80,0.0,1.0,74,0.00,,,0.00,Wunderground v.1.15,2013-10-04 20:22:00,
2013-10-04 16:27:00,77.6,68.7,29.97,East,80,0.0,1.0,74,0.00,,,0.00,Wunderground v.1.15,2013-10-04 20:27:00,
2013-10-04 16:32:00,77.5,68.6,29.96,East,80,0.0,0.0,74,0.00,,,0.00,Wunderground v.1.15,2013-10-04 20:32:00,
2013-10-04 16:37:00,77.4,68.5,29.97,East,80,0.0,1.0,74,0.00,,,0.00,Wunderground v.1.15,2013-10-04 20:37:00,
2013-10-04 16:42:00,77.3,68.4,29.97,East,80,0.0,0.0,74,0.00,,,0.00,Wunderground v.1.15,2013-10-04 20:42:00,
2013-10-04 16:47:00,77.3,68.4,29.97,East,80,0.0,0.0,74,0.00,,,0.00,Wunderground v.1.15,2013-10-04 20:47:00,
2013-10-04 16:52:00,77.3,68.8,29.97,East,80,0.0,0.0,75,0.00,,,0.00,Wunderground v.1.15,2013-10-04 20:52:00,
2013-10-04 16:57:00,77.3,68.4,29.97,East,80,0.0,0.0,74,0.00,,,0.00,Wunderground v.1.15,2013-10-04 20:57:00,
2013-10-04 17:02:00,77.4,68.9,29.97,East,80,0.0,0.0,75,0.00,,,0.00,Wunderground v.1.15,2013-10-04 21:02:00,
2013-10-04 17:07:00,77.5,69.3,29.97,East,80,0.0,0.0,76,0.00,,,0.00,Wunderground v.1.15,2013-10-04 21:07:00,
2013-10-04 17:12:00,77.4,69.6,29.97,East,80,0.0,0.0,77,0.00,,,0.00,Wunderground v.1.15,2013-10-04 21:12:00,
2013-10-04 17:17:00,77.4,70.0,29.97,East,80,0.0,0.0,78,0.00,,,0.00,Wunderground v.1.15,2013-10-04 21:17:00,
2013-10-04 17:22:00,77.2,69.4,29.97,East,80,0.0,0.0,77,0.00,,,0.00,Wunderground v.1.15,2013-10-04 21:22:00,
2013-10-04 17:27:00,77.1,69.3,29.97,East,80,0.0,0.0,77,0.00,,,0.00,Wunderground v.1.15,2013-10-04 21:27:00,
2013-10-04 17:32:00,76.8,69.4,29.97,East,80,0.0,0.0,78,0.00,,,0.00,Wunderground v.1.15,2013-10-04 21:32:00,
2013-10-04 17:37:00,76.6,69.6,29.97,East,80,0.0,0.0,79,0.00,,,0.00,Wunderground v.1.15,2013-10-04 21:37:00,
2013-10-04 17:42:00,76.3,70.4,29.97,East,80,0.0,0.0,82,0.00,,,0.00,Wunderground v.1.15,2013-10-04 21:42:00,
2013-10-04 17:47:00,75.8,69.9,29.97,East,80,0.0,0.0,82,0.00,,,0.00,Wunderground v.1.15,2013-10-04 21:47:00,
2013-10-04 17:52:00,75.3,69.8,29.97,East,80,0.0,0.0,83,0.00,,,0.00,Wunderground v.1.15,2013-10-04 21:52:00,
2013-10-04 17:57:00,74.9,69.7,29.97,East,80,0.0,0.0,84,0.00,,,0.00,Wunderground v.1.15,2013-10-04 21:57:00,
2013-10-04 18:02:00,74.6,69.4,29.97,East,80,0.0,0.0,84,0.00,,,0.00,Wunderground v.1.15,2013-10-04 22:02:00,
2013-10-04 18:07:00,74.2,69.4,29.98,East,80,0.0,0.0,85,0.00,,,0.00,Wunderground v.1.15,2013-10-04 22:07:00,
2013-10-04 18:12:00,73.9,69.1,29.97,East,80,0.0,0.0,85,0.00,,,0.00,Wunderground v.1.15,2013-10-04 22:12:00,
2013-10-04 18:17:00,73.5,69.1,29.98,East,80,0.0,0.0,86,0.00,,,0.00,Wunderground v.1.15,2013-10-04 22:17:00,
2013-10-04 18:22:00,73.0,68.9,29.98,East,80,0.0,0.0,87,0.00,,,0.00,Wunderground v.1.15,2013-10-04 22:22:00,
2013-10-04 18:27:00,72.6,68.8,29.98,East,80,0.0,0.0,88,0.00,,,0.00,Wunderground v.1.15,2013-10-04 22:27:00,
2013-10-04 18:32:00,72.2,68.4,29.98,East,80,0.0,0.0,88,0.00,,,0.00,Wunderground v.1.15,2013-10-04 22:32:00,
2013-10-04 18:37:00,71.7,68.3,29.98,East,80,0.0,0.0,89,0.00,,,0.00,Wunderground v.1.15,2013-10-04 22:37:00,
2013-10-04 18:42:00,71.4,68.3,29.98,East,80,0.0,0.0,90,0.00,,,0.00,Wunderground v.1.15,2013-10-04 22:42:00,
2013-10-04 18:47:00,71.2,68.1,29.98,East,80,0.0,0.0,90,0.00,,,0.00,Wunderground v.1.15,2013-10-04 22:47:00,
2013-10-04 18:52:00,71.0,68.2,29.98,East,80,0.0,0.0,91,0.00,,,0.00,Wunderground v.1.15,2013-10-04 22:52:00,
2013-10-04 18:57:00,70.7,67.9,29.99,East,80,0.0,0.0,91,0.00,,,0.00,Wunderground v.1.15,2013-10-04 22:57:00,
2013-10-04 19:02:00,70.5,67.7,29.99,East,80,0.0,0.0,91,0.00,,,0.00,Wunderground v.1.15,2013-10-04 23:02:00,
2013-10-04 19:07:00,70.3,67.5,29.99,East,80,0.0,0.0,91,0.00,,,0.00,Wunderground v.1.15,2013-10-04 23:07:00,
2013-10-04 19:12:00,70.1,67.7,29.99,East,80,0.0,0.0,92,0.00,,,0.00,Wunderground v.1.15,2013-10-04 23:12:00,
2013-10-04 19:17:00,69.9,67.8,29.99,East,80,0.0,0.0,93,0.00,,,0.00,Wunderground v.1.15,2013-10-04 23:17:00,
2013-10-04 19:22:00,69.8,67.4,29.99,East,80,0.0,0.0,92,0.00,,,0.00,Wunderground v.1.15,2013-10-04 23:22:00,
2013-10-04 19:27:00,69.6,67.2,30.00,East,80,0.0,0.0,92,0.00,,,0.00,Wunderground v.1.15,2013-10-04 23:27:00,
2013-10-04 19:32:00,69.4,67.3,30.00,East,80,0.0,0.0,93,0.00,,,0.00,Wunderground v.1.15,2013-10-04 23:32:00,
2013-10-04 19:37:00,69.2,67.1,29.99,East,80,0.0,0.0,93,0.00,,,0.00,Wunderground v.1.15,2013-10-04 23:37:00,
2013-10-04 19:42:00,69.1,67.0,29.99,East,80,0.0,0.0,93,0.00,,,0.00,Wunderground v.1.15,2013-10-04 23:42:00,
2013-10-04 19:47:00,69.0,67.2,29.99,East,80,1.0,2.0,94,0.00,,,0.00,Wunderground v.1.15,2013-10-04 23:47:00,
2013-10-04 19:52:00,69.0,67.2,29.99,East,79,0.0,0.0,94,0.00,,,0.00,Wunderground v.1.15,2013-10-04 23:52:00,
2013-10-04 19:57:00,69.0,67.2,29.99,East,79,0.0,1.0,94,0.00,,,0.00,Wunderground v.1.15,2013-10-04 23:57:00,
2013-10-04 20:02:00,69.0,67.2,29.99,East,80,0.0,1.0,94,0.00,,,0.00,Wunderground v.1.15,2013-10-05 00:02:00,
2013-10-04 20:07:00,68.9,67.1,29.99,East,79,0.0,1.0,94,0.00,,,0.00,Wunderground v.1.15,2013-10-05 00:07:00,
2013-10-04 20:12:00,68.8,66.7,30.00,East,80,0.0,1.0,93,0.00,,,0.00,Wunderground v.1.15,2013-10-05 00:12:00,
2013-10-04 20:17:00,68.6,66.5,30.00,East,79,0.0,1.0,93,0.00,,,0.00,Wunderground v.1.15,2013-10-05 00:17:00,
2013-10-04 20:22:00,68.5,66.4,30.00,East,79,0.0,0.0,93,0.00,,,0.00,Wunderground v.1.15,2013-10-05 00:22:00,
2013-10-04 20:27:00,68.3,66.2,30.00,East,80,0.0,0.0,93,0.00,,,0.00,Wunderground v.1.15,2013-10-05 00:27:00,
2013-10-04 20:32:00,68.2,66.1,30.00,East,80,0.0,0.0,93,0.00,,,0.00,Wunderground v.1.15,2013-10-05 00:32:00,
2013-10-04 20:37:00,68.0,65.9,30.01,East,80,0.0,0.0,93,0.00,,,0.00,Wunderground v.1.15,2013-10-05 00:37:00,
2013-10-04 20:42:00,67.9,65.8,30.01,East,79,0.0,1.0,93,0.00,,,0.00,Wunderground v.1.15,2013-10-05 00:42:00,
2013-10-04 20:47:00,67.8,65.4,30.01,East,79,0.0,2.0,92,0.00,,,0.00,Wunderground v.1.15,2013-10-05 00:47:00,
2013-10-04 20:52:00,67.7,65.3,30.01,East,79,0.0,1.0,92,0.00,,,0.00,Wunderground v.1.15,2013-10-05 00:52:00,
2013-10-04 20:57:00,67.6,65.2,30.01,East,80,0.0,1.0,92,0.00,,,0.00,Wunderground v.1.15,2013-10-05 00:57:00,
2013-10-04 21:02:00,67.5,64.8,30.01,East,80,0.0,0.0,91,0.00,,,0.00,Wunderground v.1.15,2013-10-05 01:02:00,
2013-10-04 21:07:00,67.4,65.0,30.01,East,79,0.0,0.0,92,0.00,,,0.00,Wunderground v.1.15,2013-10-05 01:07:00,
2013-10-04 21:12:00,67.2,64.8,30.01,East,79,0.0,0.0,92,0.00,,,0.00,Wunderground v.1.15,2013-10-05 01:12:00,
2013-10-04 21:17:00,67.1,65.0,30.01,East,80,0.0,0.0,93,0.00,,,0.00,Wunderground v.1.15,2013-10-05 01:17:00,
2013-10-04 21:22:00,66.9,64.8,30.01,East,79,0.0,0.0,93,0.00,,,0.00,Wunderground v.1.15,2013-10-05 01:22:00,
2013-10-04 21:27:00,66.7,64.6,30.01,East,80,0.0,0.0,93,0.00,,,0.00,Wunderground v.1.15,2013-10-05 01:27:00,
2013-10-04 21:32:00,66.5,64.4,30.01,East,79,0.0,0.0,93,0.00,,,0.00,Wunderground v.1.15,2013-10-05 01:32:00,
2013-10-04 21:37:00,66.4,64.3,30.02,East,80,0.0,0.0,93,0.00,,,0.00,Wunderground v.1.15,2013-10-05 01:37:00,
2013-10-04 21:42:00,66.2,64.4,30.02,East,79,0.0,0.0,94,0.00,,,0.00,Wunderground v.1.15,2013-10-05 01:42:00,
2013-10-04 21:47:00,66.2,64.4,30.02,East,80,0.0,0.0,94,0.00,,,0.00,Wunderground v.1.15,2013-10-05 01:47:00,
2013-10-04 21:52:00,66.1,64.3,30.02,East,79,0.0,0.0,94,0.00,,,0.00,Wunderground v.1.15,2013-10-05 01:52:00,
2013-10-04 21:57:00,66.0,63.9,30.01,East,79,0.0,0.0,93,0.00,,,0.00,Wunderground v.1.15,2013-10-05 01:57:00,
2013-10-04 22:02:00,65.9,63.8,30.02,East,79,0.0,1.0,93,0.00,,,0.00,Wunderground v.1.15,2013-10-05 02:02:00,
2013-10-04 22:07:00,65.9,63.8,30.02,East,79,0.0,1.0,93,0.00,,,0.00,Wunderground v.1.15,2013-10-05 02:07:00,
2013-10-04 22:12:00,66.0,63.6,30.01,East,80,0.0,1.0,92,0.00,,,0.00,Wunderground v.1.15,2013-10-05 02:12:00,
2013-10-04 22:17:00,65.9,63.5,30.01,East,79,0.0,1.0,92,0.00,,,0.00,Wunderground v.1.15,2013-10-05 02:17:00,
2013-10-04 22:22:00,65.9,63.5,30.01,East,80,0.0,0.0,92,0.00,,,0.00,Wunderground v.1.15,2013-10-05 02:22:00,
2013-10-04 22:27:00,65.9,63.5,30.01,East,79,0.0,1.0,92,0.00,,,0.00,Wunderground v.1.15,2013-10-05 02:27:00,
2013-10-04 22:32:00,65.8,63.1,30.01,East,80,0.0,1.0,91,0.00,,,0.00,Wunderground v.1.15,2013-10-05 02:32:00,
2013-10-04 22:37:00,65.8,63.1,30.02,East,80,0.0,1.0,91,0.00,,,0.00,Wunderground v.1.15,2013-10-05 02:37:00,
2013-10-04 22:42:00,65.8,63.1,30.02,East,80,0.0,0.0,91,0.00,,,0.00,Wunderground v.1.15,2013-10-05 02:42:00,
2013-10-04 22:47:00,65.7,63.0,30.02,East,79,0.0,0.0,91,0.00,,,0.00,Wunderground v.1.15,2013-10-05 02:47:00,
2013-10-04 22:52:00,65.7,63.0,30.02,East,79,1.0,2.0,91,0.00,,,0.00,Wunderground v.1.15,2013-10-05 02:52:00,
2013-10-04 22:57:00,65.6,62.9,30.02,East,79,0.0,2.0,91,0.00,,,0.00,Wunderground v.1.15,2013-10-05 02:57:00,
2013-10-04 23:02:00,65.6,63.2,30.02,East,79,0.0,0.0,92,0.00,,,0.00,Wunderground v.1.15,2013-10-05 03:02:00,
2013-10-04 23:07:00,65.4,63.0,30.02,East,79,0.0,0.0,92,0.00,,,0.00,Wunderground v.1.15,2013-10-05 03:07:00,
2013-10-04 23:12:00,65.3,62.9,30.02,East,79,0.0,0.0,92,0.00,,,0.00,Wunderground v.1.15,2013-10-05 03:12:00,
2013-10-04 23:17:00,65.2,63.1,30.02,East,79,0.0,0.0,93,0.00,,,0.00,Wunderground v.1.15,2013-10-05 03:17:00,
2013-10-04 23:22:00,65.0,62.6,30.02,East,79,0.0,0.0,92,0.00,,,0.00,Wunderground v.1.15,2013-10-05 03:22:00,
2013-10-04 23:27:00,64.8,62.4,30.02,East,80,0.0,0.0,92,0.00,,,0.00,Wunderground v.1.15,2013-10-05 03:27:00,
2013-10-04 23:32:00,64.7,62.3,30.03,East,80,0.0,0.0,92,0.00,,,0.00,Wunderground v.1.15,2013-10-05 03:32:00,
2013-10-04 23:37:00,64.5,62.1,30.02,East,79,0.0,0.0,92,0.00,,,0.00,Wunderground v.1.15,2013-10-05 03:37:00,
2013-10-04 23:42:00,64.3,61.9,30.02,East,79,0.0,0.0,92,0.00,,,0.00,Wunderground v.1.15,2013-10-05 03:42:00,
2013-10-04 23:47:00,64.1,62.0,30.02,East,79,0.0,0.0,93,0.00,,,0.00,Wunderground v.1.15,2013-10-05 03:47:00,
2013-10-04 23:52:00,64.0,61.9,30.02,East,80,0.0,0.0,93,0.00,,,0.00,Wunderground v.1.15,2013-10-05 03:52:00,
2013-10-04 23:57:00,63.8,61.7,30.02,East,79,0.0,1.0,93,0.00,,,0.00,Wunderground v.1.15,2013-10-05 03:57:00,